Weather in Istra

Russia / Moscow Oblast     55°54′51″N   36°51′37″E
temp.,
°C
wind,
m/s
gust,
m/s
humid.,
%
clouds,
%
prec.,
mm/h
press.,
hPa
HPBL,
m
6 may, thu
thu600:00+8s259714 0.6 1007131
03:00+6sse31096100 0.6 1006203
06:00+8s41393100 0.0 1005360
09:00+12s61484100 0.1 1003753
12:00+12s8167993 0.2 10021269
15:00+15s9146329 0.3 10001602
18:00+7wsw71389100 1.5 1003813
21:00+6sw41190100 1.6 1006674
7 may, fri
fri700:00+5sw5119474 0.0 1007551
03:00+4sw4119582 0.0 1009450
06:00+4sw411933 0.0 1010486
09:00+8sw58675 0.0 1011861
12:00+12sw694196 0.0 10112437
15:00+11ssw7116340 0.4 10111468
18:00+11ssw597198 0.9 10111206
21:00+8s3987100 1.0 1012215
8 may, sat
sat800:00+8s41384100 0.1 1011494
03:00+8sse61484100 1.5 10091184
06:00+7sse61481100 1.1 1007811
09:00+7sse61594100 5.3 1005771
12:00+8sse51296100 2.9 1003859
15:00+9s51197100 4.7 1001743
18:00+10ssw6128132 0.7 10001243
21:00+4sw61390100 0.8 1002858
9 may, sun
sun900:00+4wsw71396100 0.1 10041113
03:00+4w71387100 0.2 10071129
06:00+3w71277100 0.0 10101021
09:00+6wnw710625 0.0 10131177
12:00+10wnw684869 0.0 10152016
15:00+11wnw68397 0.0 10182246
18:00+10nw46485 0.0 10201904
21:00+5nw22670 0.0 102314
10 may, mon
mon1000:00+4w11680 0.0 102510
03:00+3wsw12695 0.0 102710
06:00+4wsw22715 0.0 102951
09:00+11sw22525 0.0 1029570
12:00+14sw233932 0.0 10291689
15:00+16sw22385 0.0 10281678
18:00+15sw11450 0.0 10281246
21:00+9sse11630 0.0 102810